Weather History for Lamoni, IA

Change the Weather History Date:

Thursday, November 7, 2013

  Actual Average Record
Temperature  
Mean Temperature 41 °F 44 °F  
Max Temperature 50 °F 54 °F 75 °F (1966)
Min Temperature 31 °F 34 °F -1 °F (1991)
Degree Days  
Heating Degree Days 24 21  
Month to date heating degree days 129 138  
Since 1 July heating degree days 563 622  
Cooling Degree Days 0 0  
Month to date cooling degree days 0 0  
Year to date cooling degree days 1093 946  
Moisture  
Dew Point 27 °F    
Average Humidity 63    
Maximum Humidity 92    
Minimum Humidity 33    
Precipitation  
Precipitation 0.00 in 0.08 in 1.13 in (2011)
Month to date precipitation 0.86 0.77  
Sea Level Pressure  
Sea Level Pressure 30.34 in    
Wind  
Wind Speed 9 mph (West)    
Max Wind Speed 22 mph    
Max Gust Speed 28 mph    
Visibility 10 miles    
Events      
T = Trace of Precipitation, MM = Missing Value Source: NWS Daily Summary

Daily Weather History Graph

Daily Weather History Graph

Search for Another Location

Airport:

Trip Planner

Search our weather history database for the weather conditions in past years. The results will help you decide how hot, cold, wet, or windy it might be!

Date:

Astronomy

Nov. 07, 2013 Rise Set
Actual Time 6:53 AM CST 5:04 PM CST
Civil Twilight 6:24 AM CST 5:33 PM CST
Nautical Twilight 5:51 AM CST 6:06 PM CST
Astronomical Twilight 5:19 AM CST 6:38 PM CST
Moon 11:02 AM CST (11/7) 9:17 PM CST (11/7)
Length of Visible Light 11h 09m
Length of Day
10h 11m
Waxing Crescent, 23% of the Moon is Illuminated
Nov 7
Waxing Crescent
Nov 9
First Quarter
Nov 17
Full
Nov 25
Last Quarter
Dec 2
New

Hourly Weather History & Observations

Time (CST) Temp. Windchill Dew Point Humidity Pressure Visibility Wind Dir Wind Speed Gust Speed Precip Events Conditions
12:53 AM 32.0 °F 26.4 °F 28.9 °F 88% 30.31 in 10.0 mi SW 5.8 mph - N/A   Clear
1:53 AM 30.9 °F 24.3 °F 28.0 °F 89% 30.30 in 10.0 mi SW 6.9 mph - N/A   Clear
2:53 AM 32.0 °F 25.6 °F 28.9 °F 88% 30.29 in 10.0 mi SW 6.9 mph - N/A   Clear
3:53 AM 30.9 °F 23.5 °F 28.0 °F 89% 30.29 in 10.0 mi SW 8.1 mph - N/A   Clear
4:53 AM 33.1 °F 24.9 °F 28.9 °F 85% 30.30 in 10.0 mi WSW 10.4 mph - N/A   Clear
5:53 AM 32.0 °F 24.2 °F 28.9 °F 88% 30.30 in 10.0 mi West 9.2 mph - N/A   Clear
6:53 AM 32.0 °F 24.2 °F 28.9 °F 88% 30.33 in 10.0 mi WSW 9.2 mph - N/A   Clear
7:53 AM 33.1 °F 26.9 °F 28.9 °F 85% 30.35 in 10.0 mi WSW 6.9 mph - N/A   Clear
8:53 AM 37.0 °F 29.8 °F 32.0 °F 82% 30.36 in 10.0 mi West 10.4 mph - N/A   Clear
9:53 AM 41.0 °F 33.9 °F 34.0 °F 76% 30.36 in 10.0 mi WNW 12.7 mph - N/A   Clear
10:53 AM 45.0 °F 39.3 °F 33.1 °F 63% 30.37 in 10.0 mi WNW 11.5 mph - N/A   Clear
11:53 AM 48.0 °F - 32.0 °F 54% 30.35 in 10.0 mi WNW 10.4 mph 20.7 mph N/A   Clear
12:53 PM 50.0 °F - 26.1 °F 39% 30.33 in 10.0 mi WNW 17.3 mph 24.2 mph N/A   Clear
1:53 PM 50.0 °F - 23.0 °F 35% 30.34 in 10.0 mi NW 18.4 mph 26.5 mph N/A   Clear
2:53 PM 50.0 °F - 25.0 °F 38% 30.34 in 10.0 mi NW 19.6 mph 25.3 mph N/A   Clear
3:53 PM 48.0 °F - 25.0 °F 41% 30.35 in 10.0 mi NW 13.8 mph - N/A   Clear
4:53 PM 44.1 °F 38.6 °F 21.9 °F 42% 30.36 in 10.0 mi NW 10.4 mph - N/A   Clear
5:53 PM 37.9 °F 34.4 °F 24.1 °F 57% 30.38 in 10.0 mi WNW 4.6 mph - N/A   Clear
6:53 PM 34.0 °F 28.8 °F 24.1 °F 67% 30.38 in 10.0 mi WNW 5.8 mph - N/A   Clear
7:53 PM 35.1 °F 31.0 °F 23.0 °F 61% 30.37 in 10.0 mi WNW 4.6 mph - N/A   Clear
8:53 PM 35.1 °F 30.1 °F 24.1 °F 64% 30.36 in 10.0 mi West 5.8 mph - N/A   Clear
9:53 PM 35.1 °F 32.2 °F 23.0 °F 61% 30.35 in 10.0 mi West 3.5 mph - N/A   Clear
10:53 PM 32.0 °F 26.4 °F 23.0 °F 69% 30.35 in 10.0 mi WSW 5.8 mph - N/A   Clear
11:53 PM 30.9 °F 25.2 °F 21.9 °F 69% 30.35 in 10.0 mi SW 5.8 mph - N/A   Clear